TimeEDT,TemperatureF,Dew PointF,Humidity,Sea Level PressureIn,VisibilityMPH,Wind Direction,Wind SpeedMPH,Gust SpeedMPH,PrecipitationIn,Events,Conditions,WindDirDegrees,DateUTC
12:19 AM,35.6,35.6,100,30.26,0.2,Calm,Calm,-,N/A,Fog,Fog,0,2012-10-09 04:19:00
12:26 AM,37.4,35.6,93,30.25,1.0,Calm,Calm,-,N/A,,Scattered Clouds,0,2012-10-09 04:26:00
12:29 AM,37.4,35.6,93,30.25,4.0,Calm,Calm,-,N/A,,Mostly Cloudy,0,2012-10-09 04:29:00
12:54 AM,37.0,36.0,96,30.25,10.0,Calm,Calm,-,N/A,,Mostly Cloudy,0,2012-10-09 04:54:00
1:15 AM,37.4,37.4,100,30.25,7.0,Calm,Calm,-,N/A,,Mostly Cloudy,0,2012-10-09 05:15:00
1:23 AM,37.4,37.4,100,30.25,0.8,Calm,Calm,-,N/A,,Mostly Cloudy,0,2012-10-09 05:23:00
1:34 AM,37.4,37.4,100,30.25,2.5,Calm,Calm,-,N/A,,Overcast,0,2012-10-09 05:34:00
1:41 AM,37.4,37.4,100,30.25,8.0,Calm,Calm,-,N/A,,Overcast,0,2012-10-09 05:41:00
1:54 AM,39.0,37.9,96,30.25,10.0,Calm,Calm,-,N/A,,Overcast,0,2012-10-09 05:54:00
2:54 AM,39.9,39.0,97,30.23,10.0,Calm,Calm,-,N/A,,Overcast,0,2012-10-09 06:54:00
3:54 AM,42.1,39.0,89,30.22,10.0,Calm,Calm,-,N/A,,Overcast,0,2012-10-09 07:54:00
4:52 AM,42.8,41.0,93,30.24,10.0,Calm,Calm,-,N/A,,Overcast,0,2012-10-09 08:52:00
5:19 AM,42.8,41.0,93,30.24,10.0,Calm,Calm,-,N/A,,Overcast,0,2012-10-09 09:19:00
5:54 AM,43.0,41.0,93,30.23,10.0,NE,3.5,-,N/A,,Overcast,50,2012-10-09 09:54:00
6:06 AM,42.8,41.0,93,30.23,10.0,NE,3.5,-,N/A,,Overcast,50,2012-10-09 10:06:00
6:15 AM,42.8,41.0,93,30.23,10.0,NE,4.6,-,N/A,,Overcast,50,2012-10-09 10:15:00
6:54 AM,43.0,41.0,93,30.23,10.0,ENE,4.6,-,N/A,,Overcast,60,2012-10-09 10:54:00
7:54 AM,44.1,42.1,93,30.24,8.0,Calm,Calm,-,N/A,,Overcast,0,2012-10-09 11:54:00
8:01 AM,44.6,42.8,93,30.24,8.0,Calm,Calm,-,N/A,,Overcast,0,2012-10-09 12:01:00
8:54 AM,48.0,44.1,86,30.23,10.0,NE,5.8,-,N/A,,Overcast,50,2012-10-09 12:54:00
9:54 AM,48.9,43.0,80,30.23,10.0,East,4.6,-,N/A,,Overcast,90,2012-10-09 13:54:00
10:54 AM,50.0,44.1,80,30.22,10.0,ENE,3.5,-,N/A,,Overcast,60,2012-10-09 14:54:00
11:54 AM,52.0,44.1,74,30.22,10.0,ENE,5.8,-,N/A,,Overcast,60,2012-10-09 15:54:00
12:54 PM,52.0,45.0,77,30.20,10.0,NE,4.6,-,N/A,,Overcast,50,2012-10-09 16:54:00
1:54 PM,51.1,45.0,80,30.17,10.0,East,8.1,-,N/A,,Overcast,80,2012-10-09 17:54:00
2:22 PM,51.8,46.4,82,30.17,10.0,East,5.8,-,N/A,,Overcast,90,2012-10-09 18:22:00
2:54 PM,51.1,46.0,83,30.16,10.0,Variable,5.8,-,N/A,,Overcast,0,2012-10-09 18:54:00
3:54 PM,50.0,45.0,83,30.15,10.0,Variable,3.5,-,N/A,,Overcast,0,2012-10-09 19:54:00
4:38 PM,50.0,44.6,82,30.15,10.0,East,6.9,-,N/A,,Overcast,90,2012-10-09 20:38:00
4:54 PM,50.0,45.0,83,30.14,10.0,East,4.6,-,N/A,,Overcast,90,2012-10-09 20:54:00
5:54 PM,50.0,45.0,83,30.14,10.0,ENE,5.8,-,N/A,,Overcast,60,2012-10-09 21:54:00
6:54 PM,50.0,45.0,83,30.13,10.0,East,4.6,-,N/A,,Overcast,90,2012-10-09 22:54:00
7:51 PM,50.0,46.4,87,30.13,10.0,ENE,4.6,-,N/A,,Overcast,60,2012-10-09 23:51:00
7:54 PM,50.0,46.0,86,30.12,10.0,ENE,4.6,-,N/A,,Overcast,60,2012-10-09 23:54:00
8:54 PM,50.0,46.0,86,30.12,10.0,ENE,3.5,-,N/A,,Overcast,60,2012-10-10 00:54:00
9:52 PM,48.2,46.4,93,30.13,10.0,ENE,3.5,-,N/A,,Overcast,60,2012-10-10 01:52:00
9:54 PM,48.9,46.0,90,30.11,10.0,ENE,5.8,-,N/A,,Overcast,70,2012-10-10 01:54:00
10:54 PM,48.9,46.0,90,30.11,10.0,Variable,4.6,-,N/A,,Overcast,0,2012-10-10 02:54:00
11:54 PM,48.9,46.0,90,30.08,10.0,East,4.6,-,N/A,,Overcast,90,2012-10-10 03:54:00